DW9706 East Hampton NY US current weather conditions

sailwx.info

Wind from 202

Air temperature 21.7° C
Dewpoint 19.8° C

Last reported at 2020-Aug-14 10:02 UTC.
Time now 2020-Aug-14 10:36 UTC

Location: N 41°01' W 072°13'.
View on Google Maps.

See reports from other nearby stations

  
Tides and Currents Weather Stations Pressure Air Temp Water Temp Dewpoint Dewpoint Depression Visibility Wind Speed Wind Dir Waves Ship Positions
date/time (UTC)wind fromknots sea level pressurealtimeterstation pressurevisibilityair tempwater tempwave heightnotes
2020-Aug-14 10:02 202 21.7
2020-Aug-14 09:52 202 21.1
2020-Aug-14 09:42 158 21.1
2020-Aug-14 09:32 112 21.1
2020-Aug-14 09:22 225 21.1
2020-Aug-14 09:12 225 20.6
2020-Aug-14 09:02 225 20.6
2020-Aug-14 08:52 225 20.6
2020-Aug-14 08:42 225 20.6
2020-Aug-14 08:32 225 20.6
2020-Aug-14 08:22 225 21.1
2020-Aug-14 08:12 225 21.1
2020-Aug-14 08:02 225 21.1
2020-Aug-14 07:52 225 21.1
2020-Aug-14 07:42 225 21.1
2020-Aug-14 07:32 248 21.1
2020-Aug-14 07:22 248 21.7
2020-Aug-14 07:12 248 21.7
2020-Aug-14 07:02 248 21.7
2020-Aug-14 06:52 248 21.7
2020-Aug-14 06:42 248 21.7
2020-Aug-14 06:32 248 21.7
2020-Aug-14 06:22 248 22.2
2020-Aug-14 06:12 248 22.2
2020-Aug-14 06:02 248 22.2
2020-Aug-14 05:52 248 22.2
2020-Aug-14 05:42 248 22.2
2020-Aug-14 05:32 248 22.2
2020-Aug-14 05:22 248 22.2
2020-Aug-14 05:12 248 22.8
2020-Aug-14 05:02 248 22.8
2020-Aug-14 04:52 248 22.8
2020-Aug-14 04:42 248 22.8
2020-Aug-14 04:32 248 22.8
2020-Aug-14 04:22 248 22.8
2020-Aug-14 04:12 248 22.8
2020-Aug-14 04:02 248 22.8
2020-Aug-14 03:52 248 22.8
2020-Aug-14 03:42 248 22.8
2020-Aug-14 03:32 248 22.8
2020-Aug-14 03:22 248 22.8
2020-Aug-14 03:12 248 22.8
2020-Aug-14 03:02 248 23.3
2020-Aug-14 02:52 248 23.3
2020-Aug-14 02:42 248 23.3
2020-Aug-14 02:32 248 23.3
2020-Aug-14 02:22 248 23.3
2020-Aug-14 02:12 248 23.3
2020-Aug-14 02:02 248 23.3
2020-Aug-14 01:52 248 23.3
2020-Aug-14 01:42 248 23.3
2020-Aug-14 01:32 248 23.3
2020-Aug-14 01:22 248 23.9
2020-Aug-14 01:12 248 23.9
2020-Aug-14 01:02 248 23.9
2020-Aug-14 00:52 248 23.9
2020-Aug-14 00:42 248 23.9
2020-Aug-14 00:22 248 24.4
2020-Aug-14 00:12 248 24.4
2020-Aug-14 00:02 248 24.4
2020-Aug-13 23:02 045 25.6
2020-Aug-13 22:52 225 25.6
2020-Aug-13 22:42 225 26.1
2020-Aug-13 22:32 225 26.1
2020-Aug-13 22:22 225 26.1
2020-Aug-13 22:12 225 26.1
2020-Aug-13 22:02 225 26.1
2020-Aug-13 21:52 225 26.1
2020-Aug-13 21:42 225 26.1
2020-Aug-13 21:32 225 26.1
2020-Aug-13 21:22 225 26.1
2020-Aug-13 21:12 158 26.1
2020-Aug-13 21:02 158 26.1
2020-Aug-13 20:52 135 26.7
2020-Aug-13 20:42 135 26.7
2020-Aug-13 20:32 068 26.7
2020-Aug-13 20:22 068 26.7
2020-Aug-13 20:12 068 26.1
2020-Aug-13 20:02 068 26.7
2020-Aug-13 19:52 045 26.7
2020-Aug-13 19:42 045 26.7
2020-Aug-13 19:32 225 27.2
2020-Aug-13 19:22 135 27.2
2020-Aug-13 19:12 225 27.8
2020-Aug-13 19:02 135 27.8
2020-Aug-13 18:52 248 27.8
2020-Aug-13 18:42 248 27.8
2020-Aug-13 18:32 180 27.8
2020-Aug-13 18:22 180 28.3
2020-Aug-13 18:12 292 28.3
2020-Aug-13 18:02 158 28.3
2020-Aug-13 17:52 135 28.9
2020-Aug-13 17:42 022 29.4
2020-Aug-13 17:32 180 30.0
2020-Aug-13 17:22 068 30.6
2020-Aug-13 17:12 068 30.6
2020-Aug-13 17:02 112 31.1
2020-Aug-13 16:52 068 31.7
2020-Aug-13 16:42 225 31.7
2020-Aug-13 16:32 225 31.7
2020-Aug-13 16:22 022 31.7
2020-Aug-13 16:12 225 32.2
2020-Aug-13 16:02 158 32.8
2020-Aug-13 15:52 270 31.7
2020-Aug-13 15:42 045 31.1
2020-Aug-13 15:32 202 30.6
2020-Aug-13 15:22 112 30.0
2020-Aug-13 15:12 248 29.4
2020-Aug-13 15:02 180 29.4
2020-Aug-13 14:52 068 29.4
2020-Aug-13 14:42 090 28.3
2020-Aug-13 14:32 202 27.8
2020-Aug-13 14:22 158 27.8
2020-Aug-13 14:12 202 27.8
2020-Aug-13 14:02 158 27.2
2020-Aug-13 13:52 112 27.2
2020-Aug-13 13:42 135 27.2
2020-Aug-13 13:32 090 27.2
2020-Aug-13 13:22 158 27.2
2020-Aug-13 13:12 112 27.2
2020-Aug-13 13:02 112 26.7
2020-Aug-13 12:52 180 26.7
2020-Aug-13 12:42 225 26.1
2020-Aug-13 12:32 112 26.1
2020-Aug-13 12:22 180 26.1
2020-Aug-13 12:12 158 25.6
2020-Aug-13 12:02 158 25.6
2020-Aug-13 11:52 202 25.0
2020-Aug-13 11:42 135 25.0
2020-Aug-13 11:32 158 25.0
2020-Aug-13 11:22 202 25.0
2020-Aug-13 11:12 202 24.4
2020-Aug-13 11:02 135 24.4
2020-Aug-13 10:52 158 24.4
2020-Aug-13 10:42 158 24.4
2020-Aug-13 10:32 202 24.4
2020-Aug-13 10:22 158 24.4
2020-Aug-13 10:12 112 24.4
2020-Aug-13 10:02 292 24.4
2020-Aug-13 09:52 292 24.4
2020-Aug-13 09:42 292 24.4
2020-Aug-13 09:32 292 24.4
2020-Aug-13 09:22 292 24.4
2020-Aug-13 09:12 292 24.4
2020-Aug-13 09:02 292 24.4
2020-Aug-13 08:52 292 24.4
2020-Aug-13 08:42 292 24.4
2020-Aug-13 08:32 292 24.4
2020-Aug-13 08:22 292 24.4
2020-Aug-13 08:12 292 24.4
2020-Aug-13 08:02 292 24.4
2020-Aug-13 07:52 292 24.4
2020-Aug-13 07:42 292 24.4
2020-Aug-13 07:32 292 24.4
2020-Aug-13 07:22 292 24.4
2020-Aug-13 07:12 292 24.4
2020-Aug-13 07:02 292 24.4
2020-Aug-13 06:52 292 24.4
2020-Aug-13 06:42 292 24.4
2020-Aug-13 06:32 292 24.4
2020-Aug-13 06:22 292 24.4
2020-Aug-13 06:12 248 24.4
2020-Aug-13 06:02 248 24.4
2020-Aug-13 05:52 248 24.4
2020-Aug-13 05:42 248 24.4
2020-Aug-13 05:32 248 24.4
2020-Aug-13 05:22 248 24.4
2020-Aug-13 05:12 248 24.4
2020-Aug-13 05:02 248 25.0
2020-Aug-13 04:53 248 25.0
2020-Aug-13 04:42 225 25.0
2020-Aug-13 04:32 248 25.0
2020-Aug-13 04:22 248 25.0
2020-Aug-13 04:12 248 25.0
2020-Aug-13 04:02 225 25.0
2020-Aug-13 03:52 248 25.0
2020-Aug-13 03:42 248 25.0
2020-Aug-13 03:32 248 25.0
2020-Aug-13 03:22 270 25.0
2020-Aug-13 03:12 292 25.6
2020-Aug-13 03:02 292 25.6
2020-Aug-13 02:52 202 25.6
2020-Aug-13 02:42 225 25.6
2020-Aug-13 02:32 225 25.6
2020-Aug-13 02:22 225 25.6
2020-Aug-13 02:12 270 25.6
2020-Aug-13 02:02 270 25.6
2020-Aug-13 01:52 270 25.6
2020-Aug-13 01:42 270 25.6
2020-Aug-13 01:32 270 26.1
2020-Aug-13 01:22 292 26.1
2020-Aug-13 01:12 202 26.1
2020-Aug-13 01:02 202 26.1
2020-Aug-13 00:52 248 26.7
2020-Aug-13 00:42 248 26.7
2020-Aug-13 00:32 202 26.7
2020-Aug-13 00:22 202 26.7
2020-Aug-13 00:12 202 27.2
2020-Aug-13 00:02 202 27.2
2020-Aug-12 23:52 248 27.2
2020-Aug-12 23:42 225 27.8
2020-Aug-12 23:32 248 27.8
2020-Aug-12 23:22 180 28.3
2020-Aug-12 23:12 248 28.3
2020-Aug-12 23:02 225 28.3
2020-Aug-12 22:52 248 28.9
2020-Aug-12 22:42 248 28.9
2020-Aug-12 22:32 202 29.4
2020-Aug-12 22:22 248 29.4
2020-Aug-12 22:12 248 30.0
2020-Aug-12 22:02 248 30.0
2020-Aug-12 21:52 202 30.6
2020-Aug-12 21:42 225 30.6
2020-Aug-12 21:32 248 30.6
2020-Aug-12 21:22 180 31.1
2020-Aug-12 21:12 270 31.7
2020-Aug-12 21:02 248 31.7
2020-Aug-12 20:52 202 32.2
2020-Aug-12 20:42 270 32.8
2020-Aug-12 20:32 270 33.3
2020-Aug-12 20:22 270 33.3
2020-Aug-12 20:12 202 33.3
2020-Aug-12 20:02 292 33.9
2020-Aug-12 19:52 225 34.4
2020-Aug-12 19:42 225 36.1
2020-Aug-12 19:32 202 36.7
2020-Aug-12 19:22 225 36.1
2020-Aug-12 19:12 270 36.1
2020-Aug-12 19:02 248 36.1
2020-Aug-12 18:52 225 36.7
2020-Aug-12 18:42 202 35.6
2020-Aug-12 18:32 270 35.0
2020-Aug-12 18:22 270 34.4
2020-Aug-12 18:12 270 32.8
2020-Aug-12 18:02 022 31.7
2020-Aug-12 17:52 045 31.7
2020-Aug-12 17:42 248 32.2
2020-Aug-12 17:32 248 32.2
2020-Aug-12 17:22 248 32.8
2020-Aug-12 17:12 248 32.8
2020-Aug-12 17:02 202 33.3
2020-Aug-12 16:52 202 33.9
2020-Aug-12 16:42 248 32.2
2020-Aug-12 16:32 270 32.2
2020-Aug-12 16:22 022 32.2
2020-Aug-12 16:12 248 31.7
2020-Aug-12 16:02 248 31.7
2020-Aug-12 15:52 248 30.6
2020-Aug-12 15:42 202 30.6
2020-Aug-12 15:32 202 30.0
2020-Aug-12 15:22 248 29.4
2020-Aug-12 15:12 248 29.4
2020-Aug-12 15:02 292 30.0
2020-Aug-12 14:52 270 30.6
2020-Aug-12 14:42 248 30.0
2020-Aug-12 14:32 202 29.4
2020-Aug-12 14:22 202 28.9
2020-Aug-12 14:12 248 28.3
2020-Aug-12 14:02 202 27.8
2020-Aug-12 13:52 180 27.8
2020-Aug-12 13:42 248 27.2
2020-Aug-12 13:32 248 26.7
2020-Aug-12 13:22 248 26.7
2020-Aug-12 13:12 248 26.1
2020-Aug-12 13:02 270 26.1
2020-Aug-12 12:52 270 26.1
2020-Aug-12 12:42 292 26.1
2020-Aug-12 12:32 292 26.1
2020-Aug-12 12:22 248 26.1
2020-Aug-12 12:12 202 26.7
2020-Aug-12 12:02 248 26.7
2020-Aug-12 11:52 225 26.7
2020-Aug-12 11:42 292 26.7
2020-Aug-12 11:32 248 26.1
2020-Aug-12 11:22 270 26.1
2020-Aug-12 11:12 292 25.6
2020-Aug-12 11:02 225 25.6
2020-Aug-12 10:52 202 25.0
2020-Aug-12 10:42 225 25.0
2020-Aug-12 10:32 248 25.0